Fairfield, PA

5:10 PM EST on February 24, 2017 (GMT -0500)
Fountain Dale

Weather History for KRYT - January, 2014

Change the Weather History Date:

Saturday, January 25, 2014

  Actual Average (KHGR) Record (KHGR)
Temperature  
Mean Temperature 22 °F -  
Max Temperature 30 °F 34 °F 58 °F (2017)
Min Temperature 14 °F 21 °F 3 °F (2004)
Degree Days  
Heating Degree Days 43    
Moisture  
Dew Point 5 °F    
Average Humidity 51    
Maximum Humidity 80    
Minimum Humidity 40    
Precipitation  
Precipitation 0.00 in - - ()
Sea Level Pressure  
Sea Level Pressure 29.66 in    
Wind  
Wind Speed 7 mph (WSW)    
Max Wind Speed 13 mph    
Max Gust Speed 26 mph    
Visibility 9 miles    
Events Snow    
Averages and records for this station are not official NWS values.
T = Trace of Precipitation, MM = Missing Value Source: NWS Daily Summary

Daily Weather History Graph

Daily Weather History Graph

Search for Another Location

Airport or City:

Trip Planner

Search our weather history database for the weather conditions in past years. The results will help you decide how hot, cold, wet, or windy it might be!

Date:

Astronomy

Jan. 25, 2014 Rise Set
Actual Time 7:23 AM EST 5:21 PM EST
Civil Twilight 6:54 AM EST 5:50 PM EST
Nautical Twilight 6:21 AM EST 6:22 PM EST
Astronomical Twilight 5:49 AM EST 6:54 PM EST
Moon 1:53 AM EST (1/25) 12:20 PM EST (1/25)
Length of Visible Light 10h 55m
Length of Day
9h 57m
Waning Crescent, 34% of the Moon is Illuminated
Jan 25
Waning Crescent
Jan 30
New
Feb 6
First Quarter
Feb 14
Full
Feb 22
Last Quarter

Hourly Weather History & Observations

Time (EST) Temp. Windchill Dew Point Humidity Pressure Visibility Wind Dir Wind Speed Gust Speed Precip Events Conditions
12:53 AM 14.0 °F 2.9 °F -4.0 °F 45% 29.99 in 10.0 mi SW 8.1 mph - N/A   Clear
1:53 AM 15.1 °F 4.2 °F -4.0 °F 43% 29.94 in 10.0 mi WSW 8.1 mph - N/A   Clear
2:53 AM 15.1 °F 7.7 °F -2.9 °F 45% 29.91 in 10.0 mi West 4.6 mph - N/A   Clear
3:53 AM 16.0 °F 5.3 °F -2.0 °F 45% 29.86 in 10.0 mi WSW 8.1 mph - N/A   Clear
4:53 AM 17.1 °F 7.6 °F -0.9 °F 45% 29.82 in 10.0 mi WSW 6.9 mph - N/A   Clear
5:53 AM 17.1 °F 8.7 °F -0.9 °F 45% 29.78 in 10.0 mi SW 5.8 mph - N/A   Mostly Cloudy
6:53 AM 17.1 °F 7.6 °F -0.0 °F 47% 29.75 in 10.0 mi Variable 6.9 mph - N/A   Overcast
7:53 AM 17.1 °F 8.7 °F 1.0 °F 50% 29.73 in 10.0 mi Variable 5.8 mph - N/A   Overcast
8:53 AM 18.0 °F 9.8 °F 1.0 °F 48% 29.70 in 10.0 mi SSW 5.8 mph - N/A   Overcast
9:53 AM 19.0 °F 10.0 °F 1.0 °F 46% 29.68 in 10.0 mi SW 6.9 mph - N/A   Clear
10:53 AM 21.0 °F 13.4 °F 1.9 °F 44% 29.65 in 10.0 mi SW 5.8 mph - N/A   Scattered Clouds
11:53 AM 23.0 °F 13.9 °F 1.9 °F 40% 29.57 in 10.0 mi WSW 8.1 mph - N/A   Clear
12:53 PM 24.1 °F 16.0 °F 3.9 °F 42% 29.52 in 10.0 mi WSW 6.9 mph - N/A   Mostly Cloudy
1:53 PM 25.0 °F 20.7 °F 6.1 °F 45% 29.48 in 10.0 mi Variable 3.5 mph - N/A   Overcast
2:53 PM 26.1 °F 18.4 °F 7.0 °F 44% 29.45 in 10.0 mi SW 6.9 mph - N/A   Overcast
4:53 PM 24.1 °F 18.2 °F 14.0 °F 65% 29.48 in 6.0 mi Variable 4.6 mph - 0.00 in Snow Light Snow
5:53 PM 25.0 °F 17.1 °F 14.0 °F 63% 29.48 in 10.0 mi Variable 6.9 mph - 0.00 in   Overcast
7:53 PM 30.0 °F 20.5 °F 15.1 °F 54% 29.49 in 10.0 mi SW 11.5 mph 20.7 mph N/A   Overcast
8:53 PM 28.9 °F 20.4 °F 14.0 °F 54% 29.50 in 10.0 mi SW 9.2 mph 19.6 mph N/A   Overcast
9:53 PM 27.0 °F 21.6 °F 15.1 °F 61% 29.56 in 10.0 mi Variable 4.6 mph - 0.00 in   Overcast
10:44 PM 24.8 °F 14.0 °F 14.0 °F 64% 29.56 in 1.8 mi West 11.5 mph 26.5 mph 0.00 in Snow Light Snow
10:56 PM 21.2 °F 8.9 °F 15.8 °F 80% 29.56 in 4.0 mi West 12.7 mph 24.2 mph 0.00 in Snow Light Snow
11:53 PM 19.9 °F 11.1 °F 3.9 °F 50% 29.67 in 10.0 mi Variable 6.9 mph - 0.00 in   Clear